Location: Waco, TX
(31.5480°N, 97.1670°W)
Time: 02:29:01
(UTC-06:00)

N. Korean satellite - Visible Passes

Search period start: 12 December 2017 00:00
Search period end: 22 December 2017 00:00
Orbit: 461 x 513 km, 97.2° (Epoch: 11 December)

Date Brightness Start Highest point End Pass type
(mag) Time Alt. Az. Time Alt. Az. Time Alt. Az.
12 Dec 9.2 19:16:31 10° SSW 19:19:26 22° W 19:22:23 10° NW visible
13 Dec 8.2 06:48:07 10° NNE 06:51:37 40° E 06:55:03 10° S visible
13 Dec 7.6 18:52:15 10° S 18:55:48 48° W 18:59:25 10° NNW visible
14 Dec 9.7 06:25:18 10° NE 06:27:59 19° E 06:30:38 10° SE visible
14 Dec 6.5 18:28:36 10° SSE 18:32:15 74° ENE 18:36:00 10° N visible
15 Dec 7.3 18:05:28 10° SE 18:08:47 33° ENE 18:12:10 10° N visible
15 Dec 10.1 19:41:18 10° WSW 19:42:22 11° W 19:43:25 10° WNW visible
16 Dec 9.2 19:15:42 10° SSW 19:18:40 23° W 19:21:41 10° NW visible
17 Dec 8.2 06:47:23 10° NNE 06:50:51 39° E 06:54:14 10° S visible
17 Dec 7.6 18:51:27 10° S 18:55:02 49° W 18:58:41 10° NNW visible
18 Dec 9.7 06:24:35 10° NE 06:27:11 19° E 06:29:45 10° SE visible
18 Dec 6.5 18:27:48 10° SSE 18:31:29 72° ENE 18:35:14 10° N visible
19 Dec 7.3 18:04:40 10° SE 18:08:00 32° ENE 18:11:23 10° N visible
19 Dec 10.1 19:40:22 10° WSW 19:41:34 11° W 19:42:47 10° WNW visible
20 Dec 9.2 19:14:51 10° SSW 19:17:52 23° W 19:20:54 10° NW visible
21 Dec 8.3 06:46:36 10° NNE 06:50:01 38° E 06:53:21 10° SSE visible
21 Dec 7.6 18:50:37 10° S 18:54:14 50° W 18:57:54 10° NNW visible
